FLOCK 3M-4

Last updated on Feb. 14, 2018, 4:20 p.m. UTC

1 42997U 17068L   18045.51832424  .00002998  00000-0  14782-3 0  9993
2 42997  97.3618 161.9067 0016094 213.6196 146.4019 15.18580704 16028
UTC
Height (km)
Latitude
Longitude
Inclination
Orbital Period
UTC large
Height (km)
Speed (km/s)
/
Latitude / Longitude
Inclination (degrees)
Orbital Period (minutes)
Azimuth
Elevation
Range (km)
Doppler Factor
iOS Compass Heading
iOS Angle